Location: Czekanka
(50.4925°N, 19.2643°E)
Time: 11:53:49
(UTC+00:00)

Cosmos 2227 Rocket - Pass Details

Date: 15 June 2024
Orbit: 839 x 844 km, 71.0° (Epoch: 16 July)

Event Time Altitude Azimuth Distance (km) Brightness Sun altitude
Exits shadow 00:05:10 15° 230° (SW) 2,106 3.8 -14.0°
Maximum altitude 00:09:44 55° 305° (NW) 1,011 2.7 -13.8°
Drops below altitude 10° 00:15:19 10° 24° (NNE) 2,475 6.1 -13.4°
Sets 00:17:50 0° 29° (NNE) 3,413 7.3 -13.3°
